Погода в Нижней Шахтаме

Россия / Забайкальский край     51°23′11″N   117°41′19″E
темп.,
°C
ветер,
м/с
пор.,
м/с
влажн.,
%
обл.,
%
осадки,
мм/ч
давл.,
гПа
погр.,
м
15 мая, сб
сб1500:00+3сз278695 0.2 1009234
03:00+3сз499255 0.3 1010704
06:00+2сз310895 0.1 1011538
09:00+7сз58595 0.1 10111053
12:00+12сз58345 0.0 10092000
15:00+14сз69215 0.0 10072937
18:00+15зсз59207 0.0 10053177
21:00+8зюз22373 0.0 100710
16 мая, вс
вс1600:00+6юз22435 0.0 100832
03:00+4зюз210490 0.0 1008162
06:00+5з512520 0.0 1008551
09:00+8зсз610420 0.0 10071070
12:00+13зсз6103231 0.0 10041571
15:00+17зсз71230100 0.0 10012944
18:00+15зсз6164297 0.0 10012613
21:00+13зсз71346100 0.0 10011324
17 мая, пн
пн1700:00+9зсз6135995 0.0 1003886
03:00+6сз276984 0.0 1005220
06:00+3зюз21635 0.0 100719
09:00+9зсз23275 0.0 10051042
12:00+14юз3627100 0.0 10001988
15:00+12зсз4847100 0.1 9981625
18:00+10ссз2573100 0.7 996575
21:00+6сз2792100 0.9 999542
18 мая, вт
вт1800:00+5сз3890100 0.1 1000621
03:00+4зсз4128733 0.1 1002581
06:00+3сз512735 0.0 1004678
09:00+7сз611352 0.0 10051619
12:00+10сз61030100 0.0 10042650
15:00+11зсз71224100 0.0 10033074
18:00+10сз6112169 0.0 10033005
21:00+5з38335 0.0 1006192
19 мая, ср
ср1900:00+2зюз214199 0.0 100811
03:000ююз224491 0.0 100812
06:00+3ююв1138100 0.0 100614
09:00+10зюз3739100 0.0 10021256
12:00+12з4734100 0.0 10002109
15:00+7зюз3684100 1.9 1002941
18:00+10сз136682 0.3 999760
21:00+6вюв118448 0.3 100110